Regional Weather Roundup
Issued by NWS New Orleans/Baton Rouge, LA

Home | Current Version | Previous Version | Text Only | Print | Product List | Glossary On
Versions: 1 2 3 4 5 6 7 8 9 10 11 12 13 14 15 16 17 18 19 20 21 22 23 24 25 26 27 28 29 30 31 32 33 34 35 36 37 38 39 40 41 42 43 44 45 46 47 48 49 50
000
ASUS44 KLIX 010412
RWRLIX
NEW ORLEANS REGIONAL WEATHER ROUNDUP
NATIONAL WEATHER SERVICE NEW ORLEANS LA
1100 PM CDT FRI JUL 31 2015

NOTE: "FAIR" INDICATES FEW OR NO CLOUDS BELOW 12,000 FEET WITH NO
      SIGNIFICANT WEATHER AND/OR OBSTRUCTIONS TO VISIBILITY.
      SKY/WX - SKY CONDITION AND SIGNIFICANT WEATHER.
      TMP - AIR TEMPERATURE.     DP    - DEWPOINT TEMPERATURE.
      RH  - RELATIVE HUMIDITY.   PRES  - PRESSURE.
      HI  - HEAT INDEX.          WCI   - WIND CHILL INDEX.

*  THESE STATIONS ARE NOT NWS OR FAA STATIONS AND ARE NOT UNDER
   NWS QUALITY CONTROL.

LAZ038-040-048-061>063-065>067-069-010500-
SOUTHEAST LOUISIANA

CITY           SKY/WX    TMP DP  RH WIND       PRES   REMARKS
N.O. AUDUBON     N/A     88  67  49 MISG        N/A
N.O. INTL ARPT PTCLDY    87  64  46 NE12      29.93R
N.O. LAKEFRONT CLEAR     87  67  51 NE15      29.94R
N.O. DOWNTOWN*   N/A     88  66  48 NE5       29.94R
RESERVE*         N/A     78  72  80 N5        29.94R
SLIDELL        CLEAR     75  70  84 CALM      29.93R
BATON ROUGE    CLEAR     78  67  68 N3        29.96R
BOOTHVILLE     MOCLDY    82  77  84 CALM      29.91F
BELLE CHASSE   PTCLDY    82  68  62 NE6       29.93R
BOGALUSA*        N/A     73  68  83 N3        29.96R
GALLIANO*      NOT AVBL
NEW ROADS*       N/A    N/A N/A N/A N8        29.97R
GONZALES*        N/A     75  74  96 N3        29.94R
HAMMOND*       CLEAR     75  66  73 N3        29.97R
HOUMA*         PTCLDY    82  73  72 N6        29.94R
PORT FOURCHON* CLOUDY    79  75  89 NW7G14    29.94R HAZE

$$

MSZ070-080>082-010500-
SOUTHERN MISSISSIPPI

CITY           SKY/WX    TMP DP  RH WIND       PRES   REMARKS
MCCOMB         CLEAR     80  59  48 VRB3      29.98R
GULFPORT       CLEAR     82  66  58 N5        29.92R
BILOXI         CLEAR     81  68  63 NE8       29.92R
PASCAGOULA     CLEAR     76  74  93 CALM      29.93R

$$

COASTAL OBSERVATIONS
LAKE AND NEARSHORE STATIONS

STATION/POSITION TIME  TEMP    WIND        PRES    WAVE
                       AIR SEA DIR/SP/G            HT/PER
                 (UTC) (F)     (DEG/KT/KT) (MB)    (FT/S)
PASCAGOULA       0300   85      70/  5/  7 1012.5
WAVELAND YACHT   0300   85 88   10/ 11/ 13 1013.2
GRAND ISLE       0300   84 91  320/ 14/ 15 1012.7
SOUTHWEST PASS   0300   83 87   CALM  /  2 1012.7
NEW CANAL        0300   89 89   50/ 15/ 17 1012.2
SHELL BEACH      0300   89 89   20/ 16/ 18 1012.0

OFFSHORE STATIONS

STATION/POSITION TIME  TEMP    WIND        PRES    WAVE
                       AIR SEA DIR/SP/G            HT/PER
                 (UTC) (F)     (DEG/KT/KT) (MB)    (FT/S)
64 S DAUPHIN ISL 0350   86 88   40/  4/  4 1012.4    1/ 3

$$




USA.gov is the U.S. government's official web portal to all federal, state and local government web resources and services.